IWG007 LEPP-LEIB

Flight info

Callsign IWG007
Flight time 1h 11m
Altitude 38000
Route NOLSA N10 VASUM BANEV BAN PINAR CJN L150 NANDO FENXE T257 MABUX RETBA MOPIR LASPO ODSEN VARUT
Aircraft A20N/M-SDE2E3FGHIJ1RWXY/LB1

Departure

Time 2026-05-04 11:44
Airport Pamplona Airport (LEPP)

Arrival

Time 2026-05-04 12:56
Airport Ibiza Airport (LEIB)
Time Latitude Longitude Altitude Speed Heading
2026-05-04 11:40 42.76788 -1.64180 1492 ft 0 kts 151°
2026-05-04 11:41 42.76773 -1.64169 1483 ft 5 kts 151°
2026-05-04 11:41 42.76734 -1.64139 1488 ft 8 kts 152°
2026-05-04 11:41 42.76674 -1.64106 1487 ft 10 kts 178°
2026-05-04 11:41 42.76593 -1.64099 1485 ft 13 kts 166°
2026-05-04 11:42 42.76519 -1.64153 1483 ft 12 kts 242°
2026-05-04 11:42 42.76461 -1.64219 1496 ft 12 kts 180°
2026-05-04 11:42 42.76378 -1.64174 1497 ft 14 kts 154°
2026-05-04 11:42 42.76287 -1.64110 1499 ft 15 kts 150°
2026-05-04 11:43 42.76198 -1.64041 1504 ft 14 kts 150°
2026-05-04 11:43 42.76117 -1.63972 1507 ft 14 kts 138°
2026-05-04 11:43 42.76053 -1.63877 1511 ft 11 kts 158°
2026-05-04 11:43 42.76048 -1.63936 1510 ft 11 kts 327°
2026-05-04 11:44 42.76213 -1.64055 1502 ft 59 kts 333°
2026-05-04 11:44 42.76780 -1.64474 1478 ft 123 kts 332°
2026-05-04 11:44 42.77661 -1.65115 1689 ft 151 kts 332°
2026-05-04 11:44 42.78610 -1.65790 2222 ft 159 kts 332°
2026-05-04 11:45 42.79636 -1.66497 2770 ft 172 kts 332°
2026-05-04 11:45 42.80746 -1.67241 3324 ft 182 kts 333°
2026-05-04 11:45 42.81882 -1.67993 4047 ft 180 kts 333°
2026-05-04 11:45 42.82999 -1.68715 4870 ft 177 kts 333°
2026-05-04 11:46 42.84126 -1.69425 5575 ft 181 kts 333°
2026-05-04 11:46 42.85292 -1.70139 6233 ft 192 kts 333°
2026-05-04 11:46 42.86536 -1.70931 6974 ft 202 kts 327°
2026-05-04 11:46 42.87563 -1.72256 7754 ft 206 kts 300°
2026-05-04 11:47 42.88047 -1.74084 8537 ft 206 kts 273°
2026-05-04 11:47 42.87868 -1.76001 9397 ft 206 kts 247°
2026-05-04 11:47 42.87131 -1.77673 10091 ft 210 kts 234°
2026-05-04 11:47 42.86237 -1.79366 10418 ft 230 kts 232°
2026-05-04 11:48 42.85229 -1.81129 10907 ft 243 kts 233°
2026-05-04 11:48 42.84291 -1.83058 11680 ft 245 kts 238°
2026-05-04 11:48 42.83492 -1.85126 12431 ft 248 kts 243°
2026-05-04 11:48 42.82714 -1.87244 13193 ft 250 kts 233°
2026-05-04 11:49 42.81454 -1.88849 13950 ft 250 kts 208°
2026-05-04 11:49 42.79782 -1.89537 14611 ft 254 kts 184°
2026-05-04 11:49 42.77991 -1.89595 15074 ft 269 kts 182°
2026-05-04 11:49 42.76030 -1.89645 15273 ft 292 kts 182°
2026-05-04 11:50 42.73910 -1.89706 15464 ft 314 kts 182°
2026-05-04 11:50 42.71680 -1.89776 15655 ft 334 kts 182°
2026-05-04 11:50 42.69302 -1.89853 16063 ft 345 kts 182°
2026-05-04 11:50 42.67207 -1.89922 16737 ft 346 kts 182°
2026-05-04 11:51 42.64783 -1.90001 17423 ft 350 kts 182°
2026-05-04 11:51 42.62337 -1.90082 18170 ft 351 kts 182°
2026-05-04 11:51 42.59915 -1.90163 18786 ft 353 kts 182°
2026-05-04 11:51 42.57440 -1.90246 19407 ft 355 kts 183°
2026-05-04 11:52 42.54951 -1.90329 20048 ft 358 kts 183°
2026-05-04 11:52 42.52479 -1.90411 20655 ft 360 kts 183°
2026-05-04 11:52 42.49949 -1.90496 21262 ft 362 kts 183°
2026-05-04 11:52 42.47420 -1.90580 21854 ft 364 kts 183°
2026-05-04 11:53 42.44904 -1.90767 22407 ft 366 kts 188°
2026-05-04 11:53 42.42391 -1.91429 23009 ft 367 kts 197°
2026-05-04 11:53 42.39978 -1.92576 23578 ft 368 kts 204°
2026-05-04 11:53 42.37687 -1.94088 24030 ft 371 kts 206°
2026-05-04 11:55 42.21473 -2.04892 27113 ft 386 kts 206°
2026-05-04 11:55 42.19058 -2.06489 27533 ft 387 kts 206°
2026-05-04 11:56 42.16657 -2.08076 27914 ft 389 kts 207°
2026-05-04 11:56 42.14184 -2.09710 28293 ft 391 kts 207°
2026-05-04 11:56 42.11760 -2.11309 28728 ft 392 kts 207°
2026-05-04 11:56 42.09316 -2.12920 29144 ft 392 kts 207°
2026-05-04 11:57 42.06849 -2.14546 29470 ft 395 kts 207°
2026-05-04 11:57 42.04376 -2.16174 29832 ft 396 kts 207°
2026-05-04 11:57 42.01894 -2.17806 30192 ft 398 kts 207°
2026-05-04 11:57 41.99398 -2.19446 30447 ft 401 kts 207°
2026-05-04 11:58 41.96878 -2.21101 30756 ft 402 kts 207°
2026-05-04 11:58 41.94383 -2.22737 31024 ft 405 kts 207°
2026-05-04 11:58 41.91844 -2.24400 31381 ft 405 kts 207°
2026-05-04 11:58 41.89324 -2.26050 31746 ft 405 kts 207°
2026-05-04 11:59 41.86790 -2.27707 32106 ft 405 kts 207°
2026-05-04 11:59 41.84255 -2.29364 32468 ft 404 kts 207°
2026-05-04 11:59 41.81729 -2.31014 32807 ft 404 kts 207°
2026-05-04 11:59 41.79216 -2.32654 33151 ft 404 kts 208°
2026-05-04 12:00 41.76679 -2.34307 33464 ft 404 kts 208°
2026-05-04 12:00 41.74096 -2.35990 33796 ft 404 kts 208°
2026-05-04 12:00 41.71587 -2.37622 34068 ft 404 kts 208°
2026-05-04 12:00 41.69047 -2.39274 34308 ft 405 kts 208°
2026-05-04 12:01 41.66751 -2.40766 34505 ft 405 kts 208°
2026-05-04 12:01 41.64379 -2.42306 34709 ft 406 kts 208°
2026-05-04 12:02 41.49104 -2.52189 35963 ft 408 kts 208°
2026-05-04 12:03 41.46559 -2.53831 36167 ft 408 kts 208°
2026-05-04 12:03 41.44028 -2.55462 36357 ft 408 kts 208°
2026-05-04 12:03 41.41453 -2.57120 36534 ft 408 kts 208°
2026-05-04 12:03 41.38892 -2.58768 36702 ft 408 kts 208°
2026-05-04 12:04 41.36295 -2.60336 36856 ft 411 kts 204°
2026-05-04 12:04 41.33600 -2.61497 37020 ft 414 kts 198°
2026-05-04 12:04 41.30955 -2.62198 37174 ft 418 kts 192°
2026-05-04 12:04 41.28045 -2.62506 37321 ft 422 kts 185°
2026-05-04 12:05 41.25086 -2.62352 37464 ft 426 kts 181°
2026-05-04 12:05 41.22130 -2.62065 37619 ft 426 kts 181°
2026-05-04 12:05 41.19371 -2.61809 37766 ft 426 kts 181°
2026-05-04 12:05 41.16408 -2.61541 37902 ft 427 kts 181°
2026-05-04 12:06 41.10496 -2.61015 37961 ft 426 kts 181°
2026-05-04 12:06 41.04574 -2.60489 37967 ft 426 kts 181°
2026-05-04 12:07 40.98687 -2.59966 37967 ft 426 kts 181°
2026-05-04 12:07 40.92792 -2.59438 37966 ft 425 kts 181°
2026-05-04 12:08 40.87054 -2.58918 37964 ft 425 kts 181°
2026-05-04 12:08 40.81141 -2.58386 37974 ft 425 kts 182°
2026-05-04 12:09 40.75263 -2.57855 37976 ft 426 kts 182°
2026-05-04 12:09 40.69350 -2.57323 37972 ft 424 kts 182°
2026-05-04 12:10 40.63673 -2.56814 37975 ft 424 kts 182°
2026-05-04 12:10 40.57809 -2.56290 37978 ft 424 kts 182°
2026-05-04 12:11 40.51916 -2.55763 37978 ft 424 kts 182°
2026-05-04 12:11 40.46055 -2.55242 37977 ft 423 kts 182°
2026-05-04 12:12 40.40129 -2.54379 37979 ft 431 kts 173°
2026-05-04 12:12 40.34477 -2.51571 37971 ft 445 kts 158°
2026-05-04 12:14 40.14279 -2.32309 37977 ft 454 kts 151°
2026-05-04 12:15 40.09410 -2.27599 37981 ft 454 kts 151°
2026-05-04 12:15 40.04315 -2.22682 37978 ft 454 kts 151°
2026-05-04 12:16 40.00291 -2.18174 37987 ft 464 kts 141°
2026-05-04 12:16 39.95765 -2.10175 37989 ft 480 kts 124°
2026-05-04 12:17 39.92564 -2.02519 38001 ft 480 kts 125°
2026-05-04 12:17 39.89349 -1.94922 37995 ft 479 kts 125°
2026-05-04 12:18 39.86662 -1.88603 38001 ft 477 kts 126°
2026-05-04 12:18 39.83534 -1.81270 37995 ft 477 kts 126°
2026-05-04 12:19 39.80308 -1.73722 37997 ft 476 kts 126°
2026-05-04 12:19 39.77099 -1.66233 37992 ft 476 kts 126°
2026-05-04 12:20 39.73863 -1.58696 37988 ft 476 kts 126°
2026-05-04 12:20 39.70645 -1.51221 37975 ft 475 kts 126°
2026-05-04 12:21 39.67427 -1.43769 37958 ft 474 kts 126°
2026-05-04 12:21 39.64285 -1.36510 37945 ft 474 kts 126°
2026-05-04 12:22 39.61053 -1.29060 37940 ft 473 kts 126°
2026-05-04 12:22 39.57835 -1.21660 37945 ft 473 kts 126°
2026-05-04 12:23 39.54590 -1.14217 37952 ft 473 kts 127°
2026-05-04 12:23 39.51449 -1.07033 37949 ft 474 kts 127°
2026-05-04 12:24 39.50355 -1.04535 37955 ft 474 kts 127°
2026-05-04 12:24 39.47330 -0.97640 37961 ft 474 kts 127°
2026-05-04 12:25 39.44154 -0.90416 37968 ft 474 kts 127°
2026-05-04 12:25 39.40928 -0.83049 37952 ft 472 kts 127°
2026-05-04 12:26 39.37672 -0.75665 37958 ft 473 kts 127°
2026-05-04 12:26 39.34405 -0.68294 37955 ft 472 kts 127°
2026-05-04 12:27 39.31240 -0.61163 37957 ft 472 kts 127°
2026-05-04 12:27 39.28279 -0.53594 37954 ft 481 kts 118°
2026-05-04 12:28 39.26317 -0.45258 37464 ft 486 kts 111°
2026-05-04 12:28 39.25452 -0.41040 36812 ft 486 kts 112°
2026-05-04 12:28 39.24581 -0.36824 36371 ft 483 kts 112°
2026-05-04 12:29 39.23720 -0.32688 35761 ft 483 kts 112°
2026-05-04 12:29 39.22840 -0.28492 35081 ft 483 kts 112°
2026-05-04 12:29 39.21956 -0.24290 34401 ft 485 kts 112°
2026-05-04 12:29 39.21075 -0.20114 33555 ft 488 kts 112°
2026-05-04 12:30 39.20184 -0.15894 32796 ft 488 kts 112°
2026-05-04 12:30 39.19288 -0.11658 31990 ft 489 kts 112°
2026-05-04 12:30 39.18387 -0.07406 31198 ft 491 kts 112°
2026-05-04 12:30 39.17556 -0.03480 30691 ft 486 kts 112°
2026-05-04 12:31 39.16723 0.00451 30137 ft 483 kts 112°
2026-05-04 12:31 39.15837 0.04616 29487 ft 480 kts 112°
2026-05-04 12:31 39.14957 0.08746 28890 ft 475 kts 112°
2026-05-04 12:31 39.14093 0.12792 28303 ft 471 kts 112°
2026-05-04 12:32 39.13226 0.16842 27708 ft 467 kts 112°
2026-05-04 12:32 39.11504 0.24851 26530 ft 460 kts 112°
2026-05-04 12:32 39.10652 0.28805 25951 ft 457 kts 112°
2026-05-04 12:33 39.09801 0.32745 25369 ft 454 kts 112°
2026-05-04 12:33 39.08956 0.36645 24744 ft 453 kts 112°
2026-05-04 12:33 39.08113 0.40536 24196 ft 450 kts 112°
2026-05-04 12:33 39.07269 0.44423 23571 ft 450 kts 112°
2026-05-04 12:34 39.06428 0.48290 22975 ft 446 kts 111°
2026-05-04 12:34 39.05598 0.52102 22396 ft 441 kts 111°
2026-05-04 12:34 39.04781 0.55849 21827 ft 438 kts 111°
2026-05-04 12:34 39.03959 0.59606 21254 ft 434 kts 111°
2026-05-04 12:35 39.03144 0.63328 20672 ft 431 kts 111°
2026-05-04 12:35 39.02265 0.67001 20098 ft 425 kts 116°
2026-05-04 12:35 39.01056 0.70419 19538 ft 416 kts 124°
2026-05-04 12:35 38.99700 0.73704 18957 ft 415 kts 123°
2026-05-04 12:36 38.98355 0.76984 18383 ft 413 kts 123°
2026-05-04 12:36 38.97024 0.80242 17816 ft 410 kts 123°
2026-05-04 12:36 38.95723 0.83427 17264 ft 406 kts 123°
2026-05-04 12:36 38.94415 0.86629 16710 ft 402 kts 122°
2026-05-04 12:37 38.93120 0.89796 16161 ft 398 kts 122°
2026-05-04 12:37 38.91831 0.92942 15622 ft 395 kts 122°
2026-05-04 12:37 38.90634 0.95859 15112 ft 392 kts 122°
2026-05-04 12:37 38.89557 0.99085 14589 ft 394 kts 112°
2026-05-04 12:38 38.88820 1.02469 14010 ft 393 kts 108°
2026-05-04 12:38 38.88168 1.05610 13518 ft 390 kts 108°
2026-05-04 12:38 38.87468 1.08955 12975 ft 386 kts 108°
2026-05-04 12:38 38.86772 1.12262 12466 ft 382 kts 108°
2026-05-04 12:39 38.86086 1.15506 11943 ft 380 kts 108°
2026-05-04 12:39 38.85394 1.18771 11428 ft 377 kts 108°
2026-05-04 12:39 38.84708 1.22004 10911 ft 373 kts 108°
2026-05-04 12:39 38.84028 1.25206 10510 ft 367 kts 108°
2026-05-04 12:40 38.83372 1.28303 10367 ft 353 kts 109°
2026-05-04 12:40 38.82741 1.31281 10235 ft 340 kts 109°
2026-05-04 12:40 38.82131 1.34150 10112 ft 326 kts 109°
2026-05-04 12:40 38.81542 1.36915 9953 ft 316 kts 109°
2026-05-04 12:41 38.80963 1.39618 9564 ft 312 kts 109°
2026-05-04 12:41 38.80571 1.42312 9167 ft 314 kts 92°
2026-05-04 12:41 38.80998 1.45060 8820 ft 316 kts 67°
2026-05-04 12:41 38.81990 1.47571 8424 ft 314 kts 62°
2026-05-04 12:42 38.83036 1.50027 8032 ft 313 kts 62°
2026-05-04 12:42 38.84074 1.52456 7821 ft 304 kts 62°
2026-05-04 12:42 38.85050 1.54763 7711 ft 292 kts 63°
2026-05-04 12:42 38.85990 1.57011 7610 ft 280 kts 63°
2026-05-04 12:43 38.86895 1.59195 7366 ft 275 kts 63°
2026-05-04 12:43 38.87786 1.61358 7037 ft 273 kts 63°
2026-05-04 12:43 38.88668 1.63502 6661 ft 271 kts 64°
2026-05-04 12:43 38.89549 1.65646 6294 ft 270 kts 64°
2026-05-04 12:44 38.90423 1.67776 5913 ft 268 kts 64°
2026-05-04 12:44 38.91290 1.69887 5512 ft 267 kts 64°
2026-05-04 12:44 38.92157 1.72000 5161 ft 265 kts 64°
2026-05-04 12:44 38.93002 1.74063 4802 ft 264 kts 63°
2026-05-04 12:45 38.93864 1.76166 4446 ft 262 kts 64°
2026-05-04 12:45 38.94875 1.78035 4171 ft 256 kts 40°
2026-05-04 12:45 38.96422 1.79010 3936 ft 244 kts
2026-05-04 12:45 38.98051 1.78832 3729 ft 230 kts 338°
2026-05-04 12:46 38.99469 1.78003 3542 ft 217 kts 323°
2026-05-04 12:46 39.00672 1.76933 3452 ft 204 kts 315°
2026-05-04 12:46 39.01685 1.75709 3450 ft 192 kts 303°
2026-05-04 12:46 39.02285 1.74321 3494 ft 165 kts 280°
2026-05-04 12:47 39.02349 1.72982 3455 ft 143 kts 253°
2026-05-04 12:47 39.01964 1.71880 3408 ft 136 kts 232°
2026-05-04 12:47 39.01337 1.70957 3412 ft 137 kts 229°
2026-05-04 12:47 39.00797 1.69961 3430 ft 131 kts 238°
2026-05-04 12:48 39.00361 1.68999 3480 ft 126 kts 234°
2026-05-04 12:48 38.99846 1.68068 3602 ft 128 kts 232°
2026-05-04 12:48 38.99403 1.67076 3697 ft 128 kts 245°
2026-05-04 12:48 38.99134 1.65984 3792 ft 128 kts 248°
2026-05-04 12:49 38.98797 1.64927 3884 ft 128 kts 242°
2026-05-04 12:49 38.98370 1.63914 3981 ft 128 kts 237°
2026-05-04 12:49 38.97880 1.62976 4037 ft 128 kts 235°
2026-05-04 12:49 38.97455 1.61959 4005 ft 129 kts 243°
2026-05-04 12:50 38.97095 1.60906 3879 ft 128 kts 240°
2026-05-04 12:50 38.96638 1.59927 3661 ft 127 kts 234°
2026-05-04 12:50 38.96135 1.59007 3360 ft 126 kts 236°
2026-05-04 12:50 38.95737 1.58014 3142 ft 125 kts 245°
2026-05-04 12:51 38.95445 1.56964 3069 ft 124 kts 246°
2026-05-04 12:51 38.95094 1.55937 3151 ft 127 kts 240°
2026-05-04 12:51 38.94636 1.54964 3009 ft 125 kts 231°
2026-05-04 12:51 38.94104 1.54083 2782 ft 126 kts 234°
2026-05-04 12:52 38.93681 1.53080 2415 ft 129 kts 242°
2026-05-04 12:52 38.93337 1.52021 2092 ft 126 kts 245°
2026-05-04 12:52 38.93010 1.50994 1843 ft 123 kts 243°
2026-05-04 12:52 38.92622 1.50018 1801 ft 122 kts 239°
2026-05-04 12:53 38.92183 1.49091 1777 ft 123 kts 236°
2026-05-04 12:53 38.91732 1.48090 1295 ft 133 kts 239°
2026-05-04 12:53 38.91346 1.47073 1159 ft 120 kts 240°
2026-05-04 12:53 38.90976 1.46110 1101 ft 124 kts 238°
2026-05-04 12:54 38.90537 1.45139 1073 ft 123 kts 237°
2026-05-04 12:54 38.90117 1.44170 988 ft 129 kts 240°
2026-05-04 12:54 38.89734 1.43152 786 ft 124 kts 242°
2026-05-04 12:54 38.89317 1.42195 632 ft 123 kts 239°
2026-05-04 12:55 38.88903 1.41226 477 ft 123 kts 238°
2026-05-04 12:55 38.88514 1.40256 271 ft 124 kts 238°
2026-05-04 12:55 38.88100 1.39295 137 ft 123 kts 240°
2026-05-04 12:55 38.87701 1.38321 30 ft 118 kts 240°
2026-05-04 12:56 38.87417 1.37639 31 ft 59 kts 242°
2026-05-04 12:56 38.87280 1.37288 31 ft 37 kts 251°
2026-05-04 12:56 38.87261 1.36981 33 ft 32 kts 275°
2026-05-04 12:56 38.87331 1.36831 39 ft 17 kts 333°
2026-05-04 12:57 38.87441 1.36781 43 ft 16 kts 16°
2026-05-04 12:57 38.87502 1.36800 46 ft 3 kts 13°
2026-05-04 12:57 38.87512 1.36804 47 ft 0 kts 14°